Weather reports worldwide

Advertisment
Garmisch-Partenkirchen, Germany (10963): temperature & dewpoint: 14.08.2019 06:00:00 - 20.08.2019 06:00:00 (CEST)Garmisch-Partenkirchen, Germany (10963): temperature 5cm & temperature -5cm: 14.08.2019 06:00:00 - 20.08.2019 06:00:00 (CEST)Garmisch-Partenkirchen, Germany (10963): temperature -20cm & temperature -100cm: 14.08.2019 06:00:00 - 20.08.2019 06:00:00 (CEST)Garmisch-Partenkirchen, Germany (10963): wind speed & gusts: 14.08.2019 06:00:00 - 20.08.2019 06:00:00 (CEST)Garmisch-Partenkirchen, Germany (10963): wind direction: 14.08.2019 06:00:00 - 20.08.2019 06:00:00 (CEST)Garmisch-Partenkirchen, Germany (10963): reduced air pressure: 14.08.2019 06:00:00 - 20.08.2019 06:00:00 (CEST)Garmisch-Partenkirchen, Germany (10963): visibility: 14.08.2019 06:00:00 - 20.08.2019 06:00:00 (CEST)Garmisch-Partenkirchen, Germany (10963): sunshine duration: 14.08.2019 06:00:00 - 20.08.2019 06:00:00 (CEST)Garmisch-Partenkirchen, Germany (10963): precipitation: 14.08.2019 06:00:00 - 20.08.2019 06:00:00 (CEST)
Date & Time tt [°C] td [°C] tt 5cm [°C] tt -5cm [°C] tt -20cm [°C] tt -100cm [°C] ff [km/h] ff [kn] fx [km/h] fx [kn] dd ppp [hPa] vv [km] sd [min] rr [mm]
20.08.2019 06:00:00 14,9 14,5 14,6 18,3 20,2 17,9 2 1 5 3 SSW 1019,9 21 0 0,0
20.08.2019 05:00:00 15,1 14,7 14,4 18,7 20,4 17,9 5 3 9 5 SSE 1019,7 14 0 0,1
20.08.2019 04:00:00 15,5 15,1 15,3 19,1 20,7 17,9 4 2 7 4 W 1020,4 8 0 0,4
20.08.2019 03:00:00 16,1 15,1 15,8 19,5 20,9 17,9 2 1 8 4 SW 1020,5 30 0 0,2
20.08.2019 02:00:00 16,5 15,8 16,4 19,9 21,2 17,8 5 3 9 5 SW 1020,4 24 0 0,1
20.08.2019 01:00:00 16,9 16,2 16,7 20,2 21,5 17,8 3 1 9 5 W 1019,9 43 0 0,0
20.08.2019 00:00:00 16,8 16,3 16,7 20,4 21,8 17,8 5 3 8 4 S 1019,8 38 0 0,0
19.08.2019 23:00:00 17,3 16,8 16,4 20,9 22,1 17,8 2 1 9 5 NW 1019,3 39 0 0,0
19.08.2019 22:00:00 17,3 16,7 17,1 21,6 22,4 17,8 5 3 9 5 SW 1019,0 14 0 0,0
19.08.2019 21:00:00 17,7 16,9 17,2 22,3 22,8 17,8 3 2 8 4 SW 1018,1 6 0 0,1
19.08.2019 20:00:00 18,5 17,2 18,0 23,3 23,0 17,8 4 2 19 10 WSW 1017,7 38 0 1,8
19.08.2019 19:00:00 21,3 15,3 21,0 25,0 23,0 17,8 8 4 28 15 NE 1016,4 75 20 0,0
19.08.2019 18:00:00 22,2 15,0 22,9 26,4 22,7 17,8 10 6 22 12 NE 1015,6 75 47 0,0
19.08.2019 17:00:00 23,0 15,4 25,5 26,6 22,3 17,8 9 5 21 11 NE 1015,3 75 38 0,0
19.08.2019 16:00:00 22,8 15,0 25,4 26,1 21,8 17,8 10 5 19 10 NE 1016,0 70 25 0,0
19.08.2019 15:00:00 22,0 14,6 23,2 25,4 21,3 17,8 5 3 14 8 NE 1016,2 66 16 0,0
19.08.2019 14:00:00 21,4 15,3 21,7 23,4 20,9 17,7 3 1 6 3 WNW 1016,6 73 0 0,0
19.08.2019 13:00:00 20,5 15,3 21,9 23,1 20,5 17,7 4 2 8 4 NE 1016,6 75 0 0,0
19.08.2019 12:00:00 19,7 16,2 19,5 21,7 20,3 17,7 4 2 8 4 SW 1016,8 70 2 0,0
19.08.2019 11:00:00 17,7 15,7 17,9 20,3 20,2 17,7 3 2 8 4 S 1017,6 61 0 0,2
19.08.2019 10:00:00 17,2 15,3 17,1 19,6 20,3 17,7 2 1 7 4 WNW 1017,9 67 0 0,3
19.08.2019 09:00:00 15,7 15,0 15,6 19,0 20,5 17,7 7 4 14 7 SSW 1018,9 4,9 0 1,2
19.08.2019 08:00:00 15,8 15,3 15,7 18,9 20,7 17,7 6 3 10 6 WSW 1018,0 14 0 1,8
19.08.2019 07:00:00 16,0 15,1 15,7 19,2 21,0 17,7 3 1 8 4 NNW 1017,5 4,7 0 2,8
19.08.2019 06:00:00 17,4 14,5 16,6 19,6 21,2 17,7 3 2 11 6 NNW 1016,9 75 0 0,0
19.08.2019 05:00:00 17,7 13,8 16,5 19,9 21,5 17,7 9 5 16 8 E 1017,0 75 0 0,0
19.08.2019 04:00:00 18,1 15,6 17,0 20,2 21,8 17,7 4 2 9 5 NNE 1016,7 65 0 0,0
19.08.2019 03:00:00 17,3 15,7 16,7 20,4 22,1 17,7 3 2 7 4 NNW 1015,8 56 0 0,2
19.08.2019 02:00:00 16,8 14,7 16,3 20,6 22,5 17,7 6 3 10 6 SSW 1014,7 68 0 0,0
19.08.2019 01:00:00 16,8 14,7 15,4 21,1 23,0 17,7 4 2 15 8 WSW 1013,7 60 0 0,0
19.08.2019 00:00:00 17,6 15,0 16,7 22,1 23,5 17,7 3 2 8 5 NE 1012,5 75 0 0,0
18.08.2019 23:00:00 18,0 14,9 16,6 22,9 24,0 17,7 3 1 7 4 W 1011,6 69 0 0,0
18.08.2019 22:00:00 18,5 15,2 17,4 24,2 24,6 17,7 4 2 10 6 WSW 1010,8 74 0 0,0
18.08.2019 21:00:00 20,3 15,8 18,7 26,0 24,9 17,7 6 4 11 6 WSW 1009,5 67 0 0,0
18.08.2019 20:00:00 24,0 16,1 21,9 28,1 25,1 17,7 2 1 9 5 W 1008,4 75 27 0,0
18.08.2019 19:00:00 28,9 12,6 28,3 29,9 25,0 17,7 5 3 18 10 E 1007,4 75 34 0,0
18.08.2019 18:00:00 29,5 11,2 30,8 31,7 24,6 17,7 11 6 29 15 NE 1007,3 75 60 0,0
18.08.2019 17:00:00 30,0 12,5 32,5 32,3 23,9 17,7 13 7 29 16 NNE 1007,1 75 60 0,0
18.08.2019 16:00:00 30,2 12,5 32,7 32,2 22,9 17,7 16 8 30 16 NNE 1007,2 60 60 0,0
18.08.2019 15:00:00 30,1 12,4 32,4 31,6 21,8 17,7 13 7 25 13 NE 1007,3 59 60 0,0
18.08.2019 14:00:00 29,7 13,4 32,0 30,3 20,5 17,7 8 5 19 10 NE 1007,7 50 60 0,0
18.08.2019 13:00:00 28,8 13,3 30,6 27,9 19,3 17,7 5 3 9 5 E 1008,4 52 60 0,0
18.08.2019 12:00:00 27,4 13,2 28,2 24,8 18,3 17,7 4 2 10 5 S 1009,1 75 60 0,0
18.08.2019 11:00:00 25,2 12,9 25,3 21,0 17,7 17,7 3 2 9 5 S 1010,1 63 60 0,0
18.08.2019 10:00:00 23,5 14,0 21,2 16,7 17,6 17,7 4 2 8 5 S 1011,2 67 60 0,0
18.08.2019 09:00:00 19,5 12,8 15,3 15,5 17,7 17,7 4 2 7 4 SW 1012,7 75 60 0,0
18.08.2019 08:00:00 15,2 12,9 12,6 15,3 18,0 17,7 3 2 6 3 SW 1013,9 67 52 0,0
18.08.2019 07:00:00 12,2 11,6 11,2 15,4 18,3 17,7 3 2 7 4 W 1014,5 43 0 0,0
18.08.2019 06:00:00 12,5 12,0 11,1 15,9 18,7 17,7 5 3 8 4 SW 1014,3 53 0 0,0
18.08.2019 05:00:00 13,1 12,4 12,2 16,6 19,0 17,7 3 2 7 4 WSW 1014,1 42 0 0,0
18.08.2019 04:00:00 14,2 13,2 13,0 17,3 19,2 17,7 3 1 8 4 SW 1014,1 68 0 0,0
18.08.2019 03:00:00 14,9 13,6 14,0 17,7 19,5 17,7 3 2 9 5 WSW 1014,3 56 0 0,0
18.08.2019 02:00:00 14,8 13,7 13,8 18,3 19,8 17,7 4 2 7 4 WSW 1014,6 50 0 0,0
18.08.2019 01:00:00 16,4 14,1 15,9 18,7 20,0 17,7 3 2 10 5 W 1014,4 69 0 0,0
18.08.2019 00:00:00 15,8 13,7 15,3 19,1 20,3 17,7 5 3 9 5 S 1014,7 65 0 0,0
17.08.2019 23:00:00 15,9 14,0 15,4 19,5 20,6 17,8 3 1 6 3 SW 1014,7 75 0 0,0
17.08.2019 22:00:00 16,2 14,0 15,6 20,2 21,0 17,8 4 2 10 5 SSW 1014,8 75 0 0,0
17.08.2019 21:00:00 17,0 14,8 16,0 21,2 21,2 17,8 3 2 9 5 WSW 1014,1 64 0 0,0
17.08.2019 20:00:00 18,9 15,0 18,2 22,3 21,4 17,8 4 2 6 4 W 1014,0 63 0 0,0
17.08.2019 19:00:00 20,9 13,9 19,7 23,4 21,4 17,8 2 1 10 6 ENE 1012,9 75 0 0,0
17.08.2019 18:00:00 22,5 13,5 22,4 24,5 21,3 17,8 4 2 16 9 E 1012,2 75 0 0,0
17.08.2019 17:00:00 23,6 12,1 24,5 25,4 20,9 17,8 9 5 20 11 NE 1011,7 66 7 0,0
17.08.2019 16:00:00 23,5 11,8 24,2 25,7 20,4 17,8 8 4 13 7 NE 1012,0 68 9 0,0
17.08.2019 15:00:00 23,9 11,4 25,7 25,4 19,7 17,8 7 4 13 7 NE 1012,4 75 3 0,0
17.08.2019 14:00:00 23,5 10,5 25,4 24,7 18,9 17,8 5 3 11 6 NE 1013,1 51 13 0,0
17.08.2019 13:00:00 23,4 13,0 24,7 23,2 18,1 17,8 3 1 7 4 ESE 1013,4 64 3 0,0
17.08.2019 12:00:00 22,2 8,5 24,9 21,5 17,3 17,8 3 2 7 4 ESE 1014,1 75 27 0,0
17.08.2019 11:00:00 21,1 11,3 20,2 18,5 16,9 17,8 0 0 6 3 N 1014,5 58 11 0,0
17.08.2019 10:00:00 19,3 11,1 18,3 16,2 16,7 17,8 4 2 7 4 SE 1015,1 73 49 0,0
17.08.2019 09:00:00 14,8 12,1 13,5 15,1 16,7 17,8 0 0 8 4 N 1016,3 75 20 0,0
17.08.2019 08:00:00 11,0 10,2 10,7 13,8 16,9 17,8 3 2 8 4 SSW 1017,7 42 2 0,0
17.08.2019 07:00:00 9,3 8,9 9,1 13,5 17,2 17,8 3 2 9 5 WSW 1018,5 36 0 0,0
17.08.2019 06:00:00 9,1 8,7 8,8 13,7 17,6 17,8 3 2 6 3 SW 1018,2 28 0 0,0
17.08.2019 05:00:00 8,9 8,6 8,3 14,0 18,0 17,8 3 1 8 4 SW 1018,5 38 0 0,0
17.08.2019 04:00:00 9,0 8,5 8,6 14,4 18,5 17,8 5 3 8 5 WSW 1018,6 30 0 0,0
17.08.2019 03:00:00 9,3 8,9 7,5 15,0 19,0 17,8 3 1 9 5 WSW 1018,7 45 0 0,0
17.08.2019 02:00:00 9,5 9,1 8,1 15,7 19,5 17,8 4 2 10 5 SW 1018,3 32 0 0,0
17.08.2019 01:00:00 10,3 9,7 8,8 16,4 20,0 17,8 2 1 6 3 WSW 1018,6 53 0 0,0
17.08.2019 00:00:00 10,4 9,9 9,2 17,3 20,6 17,8 0 0 4 2 N 1018,6 39 0 0,0
16.08.2019 23:00:00 11,2 10,5 10,2 18,4 21,2 17,8 2 1 7 4 WSW 1018,4 46 0 0,0
16.08.2019 22:00:00 12,2 11,2 11,5 19,6 21,8 17,8 5 3 8 4 SW 1018,4 41 0 0,0
16.08.2019 21:00:00 13,7 11,9 12,1 21,3 22,4 17,8 2 1 5 3 W 1017,6 68 0 0,0
16.08.2019 20:00:00 16,7 11,6 14,4 23,4 22,7 17,9 3 2 16 8 NNW 1016,2 24 27 0,0
16.08.2019 19:00:00 20,1 9,9 21,1 25,4 22,8 17,9 8 5 21 11 NNE 1015,3 49 60 0,0
16.08.2019 18:00:00 20,0 9,8 20,6 26,8 22,7 17,9 11 6 27 14 NE 1015,8 74 60 0,0
16.08.2019 17:00:00 20,6 10,0 22,8 27,7 22,3 17,9 11 6 28 15 NNE 1015,7 75 60 0,0
16.08.2019 16:00:00 21,0 10,1 24,6 28,9 21,7 17,9 11 6 28 15 NNE 1015,9 65 60 0,0
16.08.2019 15:00:00 20,9 9,8 24,3 29,2 20,7 17,9 13 7 23 12 NE 1016,4 75 60 0,0
16.08.2019 14:00:00 20,7 10,4 24,7 28,2 19,5 17,9 11 6 24 13 NE 1017,0 63 60 0,0
16.08.2019 13:00:00 19,5 10,1 23,7 25,9 18,4 17,9 9 5 23 12 NE 1018,0 75 59 0,0
16.08.2019 12:00:00 18,9 9,7 22,2 23,1 17,5 17,9 6 4 13 7 NE 1018,6 69 60 0,0
16.08.2019 11:00:00 17,3 11,1 18,6 19,4 16,9 17,9 3 2 8 4 WSW 1019,4 70 45 0,0
16.08.2019 10:00:00 14,8 11,6 15,8 17,0 16,8 17,9 3 2 9 5 NW 1020,5 64 4 0,0
16.08.2019 09:00:00 13,8 11,8 13,8 16,1 16,7 17,9 5 3 8 4 WSW 1021,0 72 5 0,0
16.08.2019 08:00:00 13,1 11,7 12,8 15,2 16,8 17,9 0 0 5 3 N 1021,2 75 17 0,0
16.08.2019 07:00:00 12,0 11,7 12,0 15,1 17,0 18,0 2 1 4 2 SW 1021,6 31 0 0,2
16.08.2019 06:00:00 12,0 11,6 11,8 15,2 17,1 18,0 2 1 6 4 ESE 1021,6 31 0 0,1
16.08.2019 05:00:00 12,1 11,7 12,0 15,4 17,4 18,0 0 0 6 3 N 1021,4 59 0 1,2
16.08.2019 04:00:00 12,2 11,8 12,1 15,6 17,6 18,0 2 1 9 5 SW 1021,2 1,8 0 1,9
16.08.2019 03:00:00 12,2 11,9 12,2 15,9 17,8 18,0 3 2 7 4 SSE 1020,5 48 0 0,0
16.08.2019 02:00:00 12,8 12,3 12,7 16,3 18,1 18,0 3 1 4 2 SW 1020,1 51 0 0,0
16.08.2019 01:00:00 12,8 12,4 12,7 16,5 18,3 18,0 0 0 4 2 N 1020,3 32 0 0,0
16.08.2019 00:00:00 12,9 12,3 12,9 16,9 18,5 18,0 0 0 9 5 N 1020,3 44 0 0,1
15.08.2019 23:00:00 13,2 12,7 13,2 17,2 18,8 18,0 2 1 10 6 W 1019,9 27 0 0,6
15.08.2019 22:00:00 14,0 13,5 13,9 17,8 19,2 18,0 5 3 10 5 S 1019,6 3,2 0 2,5
15.08.2019 21:00:00 14,2 13,6 13,8 18,5 19,4 18,1 2 1 7 4 ENE 1017,6 13 0 0,0
15.08.2019 20:00:00 15,2 14,3 14,4 19,5 19,6 18,1 3 2 6 3 WSW 1016,7 18 3 0,0
15.08.2019 19:00:00 15,6 14,4 15,5 20,3 19,7 18,1 4 2 10 5 SSW 1016,3 31 0 0,4
15.08.2019 18:00:00 16,1 14,7 15,8 21,4 19,6 18,1 3 2 10 5 S 1016,0 15 0 1,5
15.08.2019 17:00:00 18,2 12,3 19,9 22,7 19,3 18,1 4 2 10 5 NNE 1014,8 75 24 0,0
15.08.2019 16:00:00 16,8 13,4 16,2 21,2 19,2 18,1 5 3 29 15 E 1015,8 69 0 0,6
15.08.2019 15:00:00 17,9 11,6 18,3 22,7 18,7 18,1 13 7 31 17 NE 1014,9 75 1 0,0
15.08.2019 14:00:00 19,7 10,7 21,8 23,7 17,9 18,1 15 8 31 17 NNE 1014,0 72 38 0,0
15.08.2019 13:00:00 19,7 9,9 21,3 21,5 17,2 18,1 11 6 25 13 NNE 1014,0 72 9 0,0
15.08.2019 12:00:00 19,5 7,7 20,4 20,6 16,4 18,1 6 4 12 7 NE 1014,2 75 29 0,0
15.08.2019 11:00:00 19,5 10,7 20,2 18,0 15,9 18,1 3 2 8 5 E 1014,0 56 59 0,0
15.08.2019 10:00:00 16,9 8,8 14,1 14,3 15,7 18,1 3 2 8 4 ENE 1015,4 69 57 0,0
15.08.2019 09:00:00 14,1 9,1 11,6 13,0 15,8 18,2 3 1 5 3 E 1016,6 75 60 0,0
15.08.2019 08:00:00 10,1 8,7 9,0 12,2 16,1 18,2 0 0 4 2 N 1018,3 50 52 0,0
15.08.2019 07:00:00 6,8 6,5 6,4 12,0 16,5 18,2 3 1 8 4 WSW 1019,5 25 0 0,0
15.08.2019 06:00:00 6,7 6,4 5,8 12,3 16,9 18,2 3 2 6 3 SW 1019,5 30 0 0,0
15.08.2019 05:00:00 7,0 6,6 5,6 12,9 17,3 18,2 4 2 6 3 SW 1019,9 44 0 0,0
15.08.2019 04:00:00 7,0 6,6 6,6 13,4 17,8 18,2 3 2 7 4 SW 1019,9 27 0 0,0
15.08.2019 03:00:00 7,4 6,9 7,0 14,1 18,3 18,2 2 1 6 3 WNW 1020,3 30 0 0,0
15.08.2019 02:00:00 8,4 7,8 7,4 14,7 18,8 18,2 3 2 7 4 W 1020,4 47 0 0,0
15.08.2019 01:00:00 8,5 8,0 7,7 15,6 19,4 18,2 0 0 6 3 N 1020,6 50 0 0,0
15.08.2019 00:00:00 8,8 8,1 8,5 16,5 20,0 18,3 3 2 8 4 S 1020,5 41 0 0,0
14.08.2019 23:00:00 10,1 9,3 9,4 17,6 20,6 18,3 3 2 8 5 WSW 1020,2 56 0 0,0
14.08.2019 22:00:00 11,4 9,9 10,4 19,0 21,1 18,3 3 2 8 4 WSW 1019,8 63 0 0,0
14.08.2019 21:00:00 13,0 10,6 12,0 20,7 21,6 18,3 2 1 8 4 W 1019,1 72 0 0,0
14.08.2019 20:00:00 17,0 8,7 16,6 22,9 21,8 18,3 4 2 13 7 E 1017,5 75 20 0,0
14.08.2019 19:00:00 17,8 7,7 18,2 24,8 21,7 18,3 8 4 19 10 NE 1017,2 73 41 0,0
14.08.2019 18:00:00 19,0 7,5 21,9 26,0 21,3 18,3 12 6 23 13 NE 1017,0 59 53 0,0
14.08.2019 17:00:00 19,3 7,3 22,9 26,6 20,7 18,4 11 6 23 12 NNE 1016,9 64 60 0,0
14.08.2019 16:00:00 19,5 8,1 23,3 26,4 20,0 18,4 9 5 23 12 NNE 1017,3 66 58 0,0
14.08.2019 15:00:00 19,1 8,5 21,9 25,0 19,2 18,4 10 6 22 12 NE 1017,8 75 38 0,0
14.08.2019 14:00:00 18,3 8,1 22,0 23,4 18,5 18,4 9 5 21 11 NNE 1018,5 56 27 0,0
14.08.2019 13:00:00 18,1 9,1 22,0 22,0 17,7 18,4 9 5 23 12 NE 1018,7 47 32 0,0
14.08.2019 12:00:00 17,0 8,7 20,4 20,3 17,0 18,4 8 4 14 8 NE 1019,2 55 27 0,0
14.08.2019 11:00:00 16,8 6,6 19,4 19,4 16,4 18,4 5 3 14 8 E 1019,6 54 60 0,0
14.08.2019 10:00:00 15,0 9,7 15,2 15,2 16,2 18,4 3 2 7 4 S 1020,0 56 30 0,0
14.08.2019 09:00:00 13,0 10,0 11,6 14,1 16,3 18,5 3 2 10 5 S 1020,7 75 52 0,0
14.08.2019 08:00:00 11,7 10,5 10,6 13,9 16,5 18,5 4 2 10 5 SW 1021,0 22 30 0,0
14.08.2019 07:00:00 10,7 10,3 9,9 14,2 16,7 18,5 3 1 6 3 W 1021,2 29 0 0,0
14.08.2019 06:00:00 11,1 10,7 10,9 14,7 16,9 18,5 5 3 8 4 SW 1020,8 23 0 0,0

tt = temperature
td = dewpoint
tt 5cm = temperature 5cm
tt -5cm = temperature -5cm
tt -20cm = temperature -20cm
tt -100cm = temperature -100cm
ff = wind speed
fx = gusts
dd = wind direction
ppp = reduced air pressure
vv = visibility
sd = sunshine duration
rr = precipitation

Next stations